Location: Ferintosh
(52.7647°N, 112.9692°W)
Time: 18:35:19
(UTC+00:00)

Explorer 7 - Pass Details

Date: 25 May 2024
Orbit: 466 x 622 km, 50.3° (Epoch: 15 June)

Event Time Altitude Azimuth Distance (km) Brightness Sun altitude
Rises 05:57:07 0° 228° (SW) 2,518 10.0 -13.5°
Reaches altitude 10° 05:59:23 10° 218° (SW) 1,659 9.0 -13.7°
Maximum altitude 06:02:44 31° 154° (SSE) 884 7.3 -13.8°
Drops below altitude 10° 06:06:13 10° 91° (E) 1,734 9.1 -14.0°
Sets 06:08:38 0° 82° (E) 2,653 10.2 -14.2°
